STARLINK-35368, 65830

Orbit data source: Space-Track

STARLINK-35368, 65830 is a payload satellite owned by SpaceX/Seattle (US) in LEO that was launched on Mon, 29 Sep 2025 UTC via an FALCON 9 launch vehicle from the Air Force Western Test Range (AFWTR). Payload-class satellites include a variety of spacecraft equipped with specific instruments for various scientific and technological missions. These include communications satellites like Starlink; space stations such as the ISS; scientific satellites like the Hubble; Earth observation satellites from companies like Planet Labs, Umbra, and HawkEye 360; GPS; miniature CubeSats for education and research; and military/defense satellites.

Loading next visibility...
Identifier
65830, 2025-221H
Orbit
LEO
Country
Flag of USUS
Related business
Manufacturer
SpaceX/Seattle
Mission
Operational spacecraft
Bus & Motor
STARLINK V2MO, Unknown motor
Mass
575 kg wet, ~530 kg dry
Launch date (UTC)
2025-09-29 (3 weeks ago)
Launch vehicle
FALCON 9
Launch site
Air Force Western Test Range (AFWTR)
Object type
Payload
Rocket body
Debris
Shape & HBR
Unknown shape, 17.7 m
Radar Cross Section
RCS unknown

Expand to show TLE details & history
Last TLE update: 7 hours ago

TLE from 7 hours ago
0 STARLINK-35368
1 65830U 25221H   25290.83335647 -.01692541  00000-0 -25851-1 0  9993
2 65830  53.1595  34.6583 0000982  62.5134 262.6680 15.56848976  4172
Epoch: 2025-10-17T20:00Z
TLE epoch observation values (Epoch: 2025-10-17T20:00:01.999Z)
Latitude
-27.4037°
Longitude
45.35607°
Altitude
405.025 km
Speed
7.668 km/s
True Right ascension
00h 47m 44s
True Declination
-27° 15' 22"
Sunlit
Object was in full shadow at epoch
Visualization orbit readout
Latitude
Unknown
Longitude
Unknown
Altitude
Unknown
Speed
Unknown
Apparent Right ascension
Unknown
Apparent Declination
Unknown
Sunlit
N/A
Visualization observer readout
Local Sidereal Time
21:26:15
Azimuth
Unknown
Elevation
Unknown
Doppler factor
Unknown
Orbital elements
Apogee altitude
397.708 km
Perigee altitude
396.377 km
Semi-major axis
6,775.18 km
Eccentricity
0.0001
Inclination
53.1595°
RAAN
34.6583°
Arg. of periapsis
62.5134°
True anomaly
262.65684°
Mean anomaly
262.668°
Eccentric anomaly
262.66242°
Mean motion
3.8919 °/min
Orbital period
92.5 mins
BSTAR
-0.025851
Loading maneuver chart data...
Computing Atmospheric mass density...
Loading historical data...
Loading historical data...
Loading historical data...
Loading historical data...
Loading historical data...
Loading historical data...
Loading historical data...

Documentation

Showing up to 5 results
|